Torna al catalogo

STARLINK-31829

AttivoComunicazioniVLEO
NORAD 59770·PAYLOAD·🇺🇸 United States

Lanciato May 14, 2024 da Vandenberg Space Force Base

Loading…

Prossimi Passaggi (prossime 24 ore)

TLE

AggiornatoSource: CelesTrak SupGP

Epoca: Sep 14, 2026, 22:45 UTC

1 59770C 24091T   26257.94840278  .00016204  00000+0  47866-3 0  2571
2 59770  53.1592 227.3328 0001609  88.6774  44.8881 15.34388773    11

Traccia STARLINK-31829 in tempo reale con AllMySat

Download on the App Store